Batman, Turkey

9:43 AM +03 on October 22, 2017 (GMT +0300)
Batman Air Base

Weather History for LTCJ - September, 2013

Change the Weather History Date:

Monday, September 2, 2013

  Actual Average (LTCC) Record (LTCC)
Temperature  
Mean Temperature 82 °F -  
Max Temperature 102 °F 93 °F 103 °F (2014)
Min Temperature 62 °F 64 °F 57 °F (2001)
Cooling Degree Days 17    
Growing Degree Days 32 (Base 50)    
Moisture  
Dew Point 41 °F    
Average Humidity 29    
Maximum Humidity 68    
Minimum Humidity 8    
Precipitation  
Precipitation 0.00 in - - ()
Sea Level Pressure  
Sea Level Pressure 29.83 in    
Wind  
Wind Speed 4 mph ()    
Max Wind Speed 16 mph    
Max Gust Speed -    
Averages and records for this station are not official NWS values.
T = Trace of Precipitation, MM = Missing Value Source: Averaged Metar Reports

Daily Weather History Graph

Daily Weather History Graph

Search for Another Location

Airport or City:

Trip Planner

Search our weather history database for the weather conditions in past years. The results will help you decide how hot, cold, wet, or windy it might be!

Date:

Astronomy

Sep. 02, 2013 Rise Set
Actual Time 5:46 AM EEST 6:43 PM EEST
Civil Twilight 5:19 AM EEST 7:10 PM EEST
Nautical Twilight 4:47 AM EEST 7:42 PM EEST
Astronomical Twilight 4:14 AM EEST 8:15 PM EEST
Moon 2:45 AM EEST (9/2) 4:42 PM EEST (9/2)
Length of Visible Light 13h 50m
Length of Day
12h 57m
Waning Crescent, 9% of the Moon is Illuminated
Sep 2
Waning Crescent
Sep 5
New
Sep 12
First Quarter
Sep 19
Full
Sep 27
Last Quarter

Hourly Weather History & Observations

Time (EEST) Temp. Dew Point Humidity Pressure Visibility Wind Dir Wind Speed Gust Speed Precip Events Conditions
12:20 AM 73.4 °F 44.6 °F 36% 29.80 in - Calm Calm - N/A   Clear
12:50 AM 71.6 °F 42.8 °F 35% 29.80 in - Calm Calm - N/A   Clear
1:20 AM 73.4 °F 46.4 °F 38% 29.83 in - Calm Calm - N/A   Clear
1:50 AM 68.0 °F 48.2 °F 49% 29.83 in - NNE 4.6 mph - N/A   Clear
2:20 AM 66.2 °F 48.2 °F 52% 29.83 in - NE 3.5 mph - N/A   Clear
2:50 AM 66.2 °F 50.0 °F 56% 29.83 in - NNE 1.2 mph - N/A   Clear
3:20 AM 66.2 °F 50.0 °F 56% 29.83 in - North 3.5 mph - N/A   Clear
4:20 AM 62.6 °F 51.8 °F 68% 29.83 in - NNE 5.8 mph - N/A   Clear
4:50 AM 64.4 °F 50.0 °F 59% 29.83 in - NE 6.9 mph - N/A   Clear
5:20 AM 62.6 °F 50.0 °F 63% 29.83 in - NNE 6.9 mph - N/A   Clear
5:50 AM 62.6 °F 50.0 °F 63% 29.83 in - NNE 5.8 mph - N/A   Clear
6:20 AM 64.4 °F 48.2 °F 56% 29.86 in - NNE 3.5 mph - N/A   Clear
6:50 AM 66.2 °F 50.0 °F 56% 29.86 in - North 4.6 mph - N/A   Clear
7:20 AM 71.6 °F 46.4 °F 41% 29.86 in - NNE 4.6 mph - N/A   Clear
7:50 AM 71.6 °F 50.0 °F 46% 29.86 in - Variable 2.3 mph - N/A   Clear
8:20 AM 75.2 °F 48.2 °F 38% 29.86 in - SW 3.5 mph - N/A   Clear
8:50 AM 77.0 °F 46.4 °F 34% 29.86 in - SW 5.8 mph - N/A   Clear
9:20 AM 82.4 °F 46.4 °F 28% 29.86 in - WSW 4.6 mph - N/A   Clear
9:50 AM 86.0 °F 44.6 °F 23% 29.86 in - West 3.5 mph - N/A   Clear
10:20 AM 91.4 °F 42.8 °F 18% 29.86 in - West 1.2 mph - N/A   Clear
10:50 AM 95.0 °F 41.0 °F 15% 29.86 in - Variable 2.3 mph - N/A   Clear
11:20 AM 96.8 °F 41.0 °F 15% 29.86 in - Variable 3.5 mph - N/A   Clear
11:50 AM 98.6 °F 37.4 °F 12% 29.83 in - Variable 3.5 mph - N/A   Clear
12:20 PM 100.4 °F 32.0 °F 9% 29.83 in - Variable 4.6 mph - N/A   Clear
12:50 PM 100.4 °F 30.2 °F 9% 29.83 in - West 8.1 mph - N/A   Clear
1:20 PM 102.2 °F 33.8 °F 9% 29.83 in - Variable 3.5 mph - N/A   Clear
1:50 PM 102.2 °F 33.8 °F 9% 29.80 in - WSW 5.8 mph - N/A   Clear
2:20 PM 102.2 °F 33.8 °F 9% 29.80 in - WSW 9.2 mph - N/A   Clear
2:50 PM 102.2 °F 33.8 °F 9% 29.80 in - WSW 9.2 mph - N/A   Clear
3:20 PM 102.2 °F 33.8 °F 9% 29.80 in - WSW 11.5 mph - N/A   Clear
3:50 PM 102.2 °F 30.2 °F 8% 29.80 in - WSW 16.1 mph - N/A   Clear
4:20 PM 100.4 °F 32.0 °F 9% 29.80 in - WSW 15.0 mph - N/A   Clear
4:50 PM 100.4 °F 32.0 °F 9% 29.80 in - WSW 11.5 mph - N/A   Clear
5:20 PM 98.6 °F 33.8 °F 10% 29.80 in - WSW 9.2 mph - N/A   Clear
5:50 PM 96.8 °F 37.4 °F 13% 29.80 in - WSW 8.1 mph - N/A   Clear
6:20 PM 95.0 °F 37.4 °F 13% 29.80 in - WSW 5.8 mph - N/A   Clear
6:50 PM 89.6 °F 39.2 °F 17% 29.80 in - SSW 4.6 mph - N/A   Clear
7:20 PM 86.0 °F 42.8 °F 22% 29.83 in - SSW 5.8 mph - N/A   Clear
7:50 PM 86.0 °F 41.0 °F 20% 29.83 in - WSW 1.2 mph - N/A   Clear
8:20 PM 84.2 °F 41.0 °F 22% 29.83 in - Variable 2.3 mph - N/A   Clear
8:50 PM 84.2 °F 41.0 °F 22% 29.86 in - Variable 1.2 mph - N/A   Clear
9:20 PM 84.2 °F 37.4 °F 19% 29.86 in - Calm Calm - N/A   Clear
9:50 PM 75.2 °F 39.2 °F 27% 29.86 in - Variable 1.2 mph - N/A   Clear
10:20 PM 73.4 °F 39.2 °F 29% 29.86 in - NNE 6.9 mph - N/A   Clear
10:50 PM 69.8 °F 41.0 °F 35% 29.86 in - NNE 4.6 mph - N/A   Clear
11:20 PM 71.6 °F 39.2 °F 31% 29.86 in - NE 5.8 mph - N/A   Clear
11:50 PM 69.8 °F 37.4 °F 31% 29.86 in - NNE 5.8 mph - N/A   Clear